Simultaneous Nadir Overpasses (SNOs) Predictions

Prediction of SNOs over PacNW region [( 10.00, 139.50) to ( 22.70, 165.60)] between AQUA and NPP Satellites:

Table of predicted SNOs over PacNW region for the next 30.0 days since TLE Epoch: 7/14/2017
Index Date (AQUA) Time (AQUA) AQUA Lat,Lon Date (NPP) Time (NPP) NPP Lat,Lon Distance(km) Time Diff (sec)
1 07/19/2017 15:59:03 22.63, 147.50 07/19/2017 16:01:26 23.26, 144.71 293.94 143
2 07/27/2017 15:09:34 22.63, 159.86 07/27/2017 15:10:40 23.16, 157.39 260.26 66
3 07/30/2017 03:31:24 22.69, 147.54 07/30/2017 03:27:54 26.17, 145.03 462.97 210
4 08/04/2017 15:58:57 22.63, 147.51 08/04/2017 16:01:20 23.27, 144.75 291.95 143




NCC Satellite Simultaneous Nadir Overpasses (SNOs) Prediction Service
